Location: Peterborough
(44.3091°N, 78.3197°W)
Time: 20:51:20
(UTC-04:00)

Courier 1B Rocket - Pass Details

Date: 28 March 2023
Orbit: 920 x 1202 km, 28.2° (Epoch: 04 June)

Event Time Altitude Azimuth Distance (km) Brightness Sun altitude
Rises 19:53:40 0° 222° (SW) 3,954 8.7 -4.1°
Reaches altitude 10° 19:57:41 10° 203° (SSW) 2,940 7.7 -4.8°
Maximum altitude 20:01:51 16° 167° (SSE) 2,436 6.9 -5.5°
Drops below altitude 10° 20:05:53 10° 131° (SE) 2,817 6.9 -6.2°
Enters shadow 20:07:35 - 120° (ESE) 3,187 7.1 -6.5°
